DLH9CX EHAM-EDDM

Flight info

Callsign DLH9CX
Flight time N/A
Altitude 35000
Route EDUPO Z739 MISGO DCT DOJOH DCT DODEN/N0450F330 DCT TABUM DCT BOMBI T104 HAREM/N0428F270 T104 ROKIL ROKIL1A
Aircraft A320/M-SDE3FGHIRWY/LB1

Departure

Time N/A
Airport Amsterdam Airport Schiphol (EHAM)

Arrival

Time 2026-05-06 12:48
Airport Munich Airport (EDDM)
Time Latitude Longitude Altitude Speed Heading
2026-05-06 12:08 51.09352 7.35606 34810 ft 448 kts 139°
2026-05-06 12:08 51.07104 7.39040 34812 ft 448 kts 139°
2026-05-06 12:09 51.02606 7.45887 34813 ft 447 kts 139°
2026-05-06 12:09 50.98116 7.52713 34813 ft 447 kts 139°
2026-05-06 12:10 50.93612 7.59537 34802 ft 447 kts 139°
2026-05-06 12:10 50.89115 7.66329 34803 ft 447 kts 139°
2026-05-06 12:11 50.84620 7.73108 34796 ft 446 kts 139°
2026-05-06 12:11 50.80094 7.79911 34794 ft 446 kts 140°
2026-05-06 12:12 50.75570 7.86614 34787 ft 446 kts 140°
2026-05-06 12:12 50.71046 7.93310 34784 ft 446 kts 140°
2026-05-06 12:13 50.66529 8.00009 34775 ft 446 kts 140°
2026-05-06 12:13 50.62004 8.06692 34786 ft 446 kts 140°
2026-05-06 12:14 50.57121 8.12455 34779 ft 440 kts 151°
2026-05-06 12:14 50.52799 8.16798 34782 ft 440 kts 151°
2026-05-06 12:15 50.47641 8.21984 34777 ft 440 kts 151°
2026-05-06 12:15 50.42483 8.27154 34780 ft 440 kts 151°
2026-05-06 12:16 50.37317 8.32314 34782 ft 440 kts 151°
2026-05-06 12:16 50.32154 8.37455 34773 ft 440 kts 151°
2026-05-06 12:17 50.27360 8.43439 34778 ft 447 kts 136°
2026-05-06 12:17 50.23156 8.50592 34773 ft 447 kts 137°
2026-05-06 12:18 50.18942 8.57710 34771 ft 446 kts 137°
2026-05-06 12:18 50.14724 8.64814 34772 ft 446 kts 137°
2026-05-06 12:19 50.10501 8.71923 34772 ft 446 kts 137°
2026-05-06 12:19 50.06284 8.78992 34779 ft 445 kts 137°
2026-05-06 12:20 50.01894 8.85735 34786 ft 442 kts 142°
2026-05-06 12:20 49.97315 8.92053 34790 ft 440 kts 143°
2026-05-06 12:21 49.92714 8.98333 34787 ft 440 kts 142°
2026-05-06 12:21 49.88157 9.04681 34784 ft 440 kts 142°
2026-05-06 12:22 49.83632 9.11065 34772 ft 440 kts 142°
2026-05-06 12:22 49.79107 9.17427 34766 ft 440 kts 142°
2026-05-06 12:23 49.74566 9.23773 34771 ft 440 kts 142°
2026-05-06 12:23 49.70015 9.30106 34772 ft 440 kts 142°
2026-05-06 12:24 49.65465 9.36416 34775 ft 440 kts 142°
2026-05-06 12:24 49.60998 9.42889 34776 ft 444 kts 136°
2026-05-06 12:25 49.56933 9.50058 34753 ft 445 kts 136°
2026-05-06 12:25 49.52855 9.57230 34770 ft 445 kts 136°
2026-05-06 12:26 49.48756 9.64390 34781 ft 446 kts 136°
2026-05-06 12:26 49.44649 9.71535 34790 ft 446 kts 136°
2026-05-06 12:27 49.42586 9.75118 34649 ft 447 kts 137°
2026-05-06 12:27 49.40527 9.78693 34410 ft 447 kts 137°
2026-05-06 12:27 49.38472 9.82257 34176 ft 446 kts 137°
2026-05-06 12:27 49.36411 9.85825 33380 ft 449 kts 138°
2026-05-06 12:28 49.34340 9.89404 32382 ft 445 kts 138°
2026-05-06 12:28 49.32297 9.92933 31418 ft 443 kts 137°
2026-05-06 12:28 49.30237 9.96481 30495 ft 447 kts 137°
2026-05-06 12:28 49.28158 10.00051 29331 ft 449 kts 136°
2026-05-06 12:29 49.26127 10.03552 28742 ft 428 kts 136°
2026-05-06 12:29 49.24171 10.06928 28158 ft 421 kts 136°
2026-05-06 12:29 49.22233 10.10254 27530 ft 417 kts 136°
2026-05-06 12:29 49.20310 10.13539 26920 ft 413 kts 136°
2026-05-06 12:30 49.18401 10.16793 26325 ft 409 kts 136°
2026-05-06 12:30 49.16508 10.20019 25753 ft 406 kts 136°
2026-05-06 12:30 49.14631 10.23223 25155 ft 402 kts 136°
2026-05-06 12:30 49.12761 10.26371 24590 ft 399 kts 137°
2026-05-06 12:31 49.10868 10.29454 24050 ft 397 kts 137°
2026-05-06 12:31 49.08969 10.32484 23494 ft 395 kts 138°
2026-05-06 12:31 49.07071 10.35492 22886 ft 391 kts 138°
2026-05-06 12:31 49.05199 10.38463 22363 ft 386 kts 138°
2026-05-06 12:32 49.03354 10.41406 21880 ft 381 kts 138°
2026-05-06 12:32 49.01539 10.44308 21392 ft 376 kts 137°
2026-05-06 12:32 48.99745 10.47179 20954 ft 371 kts 137°
2026-05-06 12:32 48.97971 10.50010 20513 ft 368 kts 137°
2026-05-06 12:33 48.96207 10.52818 20094 ft 366 kts 137°
2026-05-06 12:33 48.94451 10.55613 19652 ft 365 kts 137°
2026-05-06 12:33 48.92696 10.58406 19343 ft 371 kts 138°
2026-05-06 12:33 48.90874 10.61293 19100 ft 383 kts 138°
2026-05-06 12:34 48.89025 10.64230 18859 ft 385 kts 138°
2026-05-06 12:34 48.87168 10.67184 18624 ft 386 kts 138°
2026-05-06 12:34 48.85325 10.70053 18039 ft 386 kts 139°
2026-05-06 12:34 48.83422 10.72910 17461 ft 382 kts 140°
2026-05-06 12:35 48.81530 10.75695 16962 ft 377 kts 140°
2026-05-06 12:35 48.79650 10.78443 16458 ft 373 kts 141°
2026-05-06 12:35 48.77790 10.81163 15952 ft 370 kts 141°
2026-05-06 12:35 48.75951 10.83867 15447 ft 367 kts 141°
2026-05-06 12:36 48.74125 10.86559 14914 ft 366 kts 140°
2026-05-06 12:36 48.72302 10.89246 14400 ft 367 kts 140°
2026-05-06 12:36 48.70471 10.91944 13872 ft 367 kts 140°
2026-05-06 12:36 48.68646 10.94632 13329 ft 367 kts 140°
2026-05-06 12:37 48.66815 10.97328 12770 ft 368 kts 140°
2026-05-06 12:37 48.64984 11.00026 12233 ft 366 kts 140°
2026-05-06 12:37 48.63172 11.02697 11681 ft 362 kts 140°
2026-05-06 12:37 48.61374 11.05344 11128 ft 358 kts 140°
2026-05-06 12:38 48.59612 11.07931 10873 ft 346 kts 140°
2026-05-06 12:38 48.57931 11.10404 10747 ft 329 kts 140°
2026-05-06 12:38 48.56358 11.12724 10618 ft 303 kts 140°
2026-05-06 12:38 48.54893 11.14878 10342 ft 289 kts 141°
2026-05-06 12:39 48.53466 11.16960 9980 ft 280 kts 140°
2026-05-06 12:39 48.52108 11.18943 9862 ft 263 kts 140°
2026-05-06 12:39 48.50831 11.20812 9618 ft 251 kts 141°
2026-05-06 12:39 48.49586 11.22619 9138 ft 247 kts 140°
2026-05-06 12:40 48.48349 11.24408 8623 ft 246 kts 140°
2026-05-06 12:40 48.47121 11.26183 8117 ft 244 kts 139°
2026-05-06 12:40 48.45904 11.27948 7595 ft 242 kts 139°
2026-05-06 12:40 48.44700 11.29695 7107 ft 239 kts 137°
2026-05-06 12:41 48.43511 11.31418 6627 ft 236 kts 137°
2026-05-06 12:41 48.42334 11.33126 6135 ft 234 kts 137°
2026-05-06 12:41 48.41165 11.34822 5635 ft 233 kts 137°
2026-05-06 12:41 48.40003 11.36507 5072 ft 233 kts 136°
2026-05-06 12:42 48.38843 11.38185 4700 ft 228 kts 135°
2026-05-06 12:42 48.37695 11.39844 4535 ft 230 kts 135°
2026-05-06 12:42 48.36543 11.41512 4403 ft 230 kts 135°
2026-05-06 12:42 48.35393 11.43175 4292 ft 230 kts 135°
2026-05-06 12:43 48.34239 11.44843 4192 ft 230 kts 135°
2026-05-06 12:43 48.33114 11.46490 4097 ft 221 kts 131°
2026-05-06 12:43 48.32346 11.48418 3987 ft 209 kts 107°
2026-05-06 12:43 48.32150 11.50483 4002 ft 195 kts 86°
2026-05-06 12:44 48.32302 11.52472 3999 ft 189 kts 84°
2026-05-06 12:44 48.32453 11.54427 4000 ft 188 kts 84°
2026-05-06 12:44 48.32600 11.56390 3912 ft 190 kts 84°
2026-05-06 12:44 48.32754 11.58376 3702 ft 192 kts 83°
2026-05-06 12:45 48.32912 11.60376 3464 ft 194 kts 83°
2026-05-06 12:45 48.33071 11.62398 3211 ft 197 kts 83°
2026-05-06 12:45 48.33389 11.66445 2702 ft 190 kts 83°
2026-05-06 12:46 48.33538 11.68350 2435 ft 178 kts 83°
2026-05-06 12:46 48.33676 11.70111 2218 ft 161 kts 81°
2026-05-06 12:46 48.33799 11.71702 1990 ft 148 kts 82°
2026-05-06 12:46 48.33918 11.73209 1764 ft 144 kts 80°
2026-05-06 12:47 48.34036 11.74694 1571 ft 143 kts 79°
2026-05-06 12:47 48.34147 11.76138 1462 ft 129 kts 83°
2026-05-06 12:47 48.34232 11.77236 1469 ft 81 kts 84°
2026-05-06 12:47 48.34280 11.77889 1469 ft 54 kts 84°
2026-05-06 12:48 48.34321 11.78399 1470 ft 47 kts 83°
2026-05-06 12:48 48.34359 11.78860 1464 ft 43 kts 83°
2026-05-06 12:48 48.34431 11.79143 1462 ft 26 kts 52°
2026-05-06 12:48 48.34537 11.79354 1464 ft 25 kts 54°
2026-05-06 12:49 48.34625 11.79532 1461 ft 12 kts 50°
2026-05-06 12:49 48.34634 11.79546 1462 ft 3 kts 50°
2026-05-06 12:49 48.34672 11.79623 1467 ft 12 kts 56°
2026-05-06 12:49 48.34706 11.79713 1464 ft 9 kts 49°
2026-05-06 12:50 48.34770 11.79709 1467 ft 10 kts 352°
2026-05-06 12:50 48.34847 11.79695 1459 ft 12 kts 353°
2026-05-06 12:50 48.34935 11.79680 1463 ft 13 kts 354°
2026-05-06 12:50 48.34957 11.79676 1460 ft 0 kts 354°
2026-05-06 12:52 48.34962 11.79676 1462 ft 2 kts 354°
2026-05-06 12:52 48.34980 11.79673 1467 ft 4 kts 354°
2026-05-06 12:52 48.35014 11.79668 1467 ft 5 kts 354°
2026-05-06 12:53 48.35050 11.79662 1458 ft 5 kts 353°
2026-05-06 12:53 48.35073 11.79659 1463 ft 2 kts
2026-05-06 12:53 48.35098 11.79715 1464 ft 9 kts 77°
2026-05-06 12:53 48.35105 11.79801 1467 ft 8 kts 83°
2026-05-06 12:54 48.35111 11.79880 1467 ft 11 kts 83°
2026-05-06 12:54 48.35123 11.80035 1464 ft 16 kts 83°
2026-05-06 12:54 48.35135 11.80175 1467 ft 7 kts 72°
2026-05-06 12:54 48.35181 11.80193 1464 ft 10 kts 354°
2026-05-06 12:55 48.35271 11.80178 1466 ft 15 kts 354°
2026-05-06 12:55 48.35379 11.80158 1467 ft 16 kts 347°
2026-05-06 12:55 48.35494 11.80128 1461 ft 17 kts 353°
2026-05-06 12:55 48.35599 11.80109 1459 ft 15 kts 353°
2026-05-06 12:56 48.35651 11.80095 1459 ft 9 kts 342°
2026-05-06 12:56 48.35723 11.80063 1461 ft 5 kts 312°
2026-05-06 12:56 48.35721 11.80021 1464 ft 4 kts 261°
2026-05-06 12:56 48.35718 11.79990 1467 ft 3 kts 263°
2026-05-06 12:57 48.35717 11.79969 1459 ft 2 kts 263°
2026-05-06 12:57 48.35716 11.79960 1458 ft 0 kts 263°